Time,TemperatureF,DewpointF,PressureIn,WindDirection,WindDirectionDegrees,WindSpeedMPH,WindSpeedGustMPH,Humidity,HourlyPrecipIn,Conditions,Clouds,dailyrainin,SoftwareType,DateUTC
2013-09-30 00:06:00,51.6,50.0,30.05,West,265,0.0,0.0,93,0.00,,,0.00,weatherlink.com 1.10,2013-09-30 04:06:00,
2013-09-30 00:21:00,51.4,50.0,30.05,West,265,0.0,0.0,93,0.00,,,0.00,weatherlink.com 1.10,2013-09-30 04:21:00,
2013-09-30 00:36:00,51.0,49.0,30.05,West,265,0.0,0.0,93,0.00,,,0.00,weatherlink.com 1.10,2013-09-30 04:36:00,
2013-09-30 00:51:00,50.5,49.0,30.04,West,265,0.0,0.0,93,0.00,,,0.00,weatherlink.com 1.10,2013-09-30 04:51:00,
2013-09-30 01:06:00,50.3,49.0,30.04,West,265,0.0,0.0,94,0.00,,,0.00,weatherlink.com 1.10,2013-09-30 05:06:00,
2013-09-30 01:22:00,50.1,49.0,30.04,West,265,0.0,0.0,94,0.00,,,0.00,weatherlink.com 1.10,2013-09-30 05:22:00,
2013-09-30 01:37:00,49.9,48.0,30.04,West,265,0.0,0.0,94,0.00,,,0.00,weatherlink.com 1.10,2013-09-30 05:37:00,
2013-09-30 01:52:00,49.4,48.0,30.05,West,265,0.0,0.0,94,0.00,,,0.00,weatherlink.com 1.10,2013-09-30 05:52:00,
2013-09-30 02:07:00,49.0,47.0,30.04,West,265,0.0,0.0,94,0.00,,,0.00,weatherlink.com 1.10,2013-09-30 06:07:00,
2013-09-30 02:22:00,48.6,47.0,30.05,West,265,0.0,0.0,94,0.00,,,0.00,weatherlink.com 1.10,2013-09-30 06:22:00,
2013-09-30 02:37:00,48.2,47.0,30.04,West,265,0.0,0.0,94,0.00,,,0.00,weatherlink.com 1.10,2013-09-30 06:37:00,
2013-09-30 02:52:00,47.9,46.0,30.04,West,265,0.0,0.0,94,0.00,,,0.00,weatherlink.com 1.10,2013-09-30 06:52:00,
2013-09-30 03:07:00,47.6,46.0,30.04,West,265,0.0,0.0,95,0.00,,,0.00,weatherlink.com 1.10,2013-09-30 07:07:00,
2013-09-30 03:22:00,47.2,46.0,30.04,West,265,0.0,0.0,95,0.00,,,0.00,weatherlink.com 1.10,2013-09-30 07:22:00,
2013-09-30 03:37:00,47.0,46.0,30.04,West,265,0.0,0.0,95,0.00,,,0.00,weatherlink.com 1.10,2013-09-30 07:37:00,
2013-09-30 03:52:00,46.9,46.0,30.04,West,265,0.0,0.0,95,0.00,,,0.00,weatherlink.com 1.10,2013-09-30 07:52:00,
2013-09-30 04:07:00,46.8,46.0,30.04,West,265,0.0,0.0,95,0.00,,,0.00,weatherlink.com 1.10,2013-09-30 08:07:00,
2013-09-30 04:22:00,46.8,46.0,30.04,West,265,0.0,0.0,95,0.00,,,0.00,weatherlink.com 1.10,2013-09-30 08:22:00,
2013-09-30 04:37:00,46.7,45.0,30.04,West,265,0.0,0.0,95,0.00,,,0.00,weatherlink.com 1.10,2013-09-30 08:37:00,
2013-09-30 04:52:00,46.7,46.0,30.04,West,265,0.0,0.0,96,0.00,,,0.00,weatherlink.com 1.10,2013-09-30 08:52:00,
2013-09-30 05:07:00,46.7,46.0,30.04,West,265,0.0,0.0,96,0.00,,,0.00,weatherlink.com 1.10,2013-09-30 09:07:00,
2013-09-30 05:22:00,46.7,46.0,30.04,West,265,0.0,0.0,96,0.00,,,0.00,weatherlink.com 1.10,2013-09-30 09:22:00,
2013-09-30 05:37:00,46.6,46.0,30.05,West,265,0.0,0.0,96,0.00,,,0.00,weatherlink.com 1.10,2013-09-30 09:37:00,
2013-09-30 05:52:00,46.7,46.0,30.05,West,265,0.0,0.0,96,0.00,,,0.00,weatherlink.com 1.10,2013-09-30 09:52:00,
2013-09-30 06:07:00,46.5,46.0,30.05,West,265,0.0,0.0,96,0.00,,,0.00,weatherlink.com 1.10,2013-09-30 10:07:00,
2013-09-30 06:22:00,46.3,45.0,30.05,West,265,0.0,0.0,96,0.00,,,0.00,weatherlink.com 1.10,2013-09-30 10:22:00,
2013-09-30 06:37:00,46.0,45.0,30.05,West,265,0.0,0.0,96,0.00,,,0.00,weatherlink.com 1.10,2013-09-30 10:37:00,
2013-09-30 06:52:00,45.7,45.0,30.05,West,265,0.0,0.0,96,0.00,,,0.00,weatherlink.com 1.10,2013-09-30 10:52:00,
2013-09-30 07:07:00,45.3,44.0,30.06,West,265,0.0,0.0,95,0.00,,,0.00,weatherlink.com 1.10,2013-09-30 11:07:00,
2013-09-30 07:22:00,45.1,44.0,30.05,West,265,0.0,0.0,96,0.00,,,0.00,weatherlink.com 1.10,2013-09-30 11:22:00,
2013-09-30 07:37:00,45.0,44.0,30.06,West,265,0.0,0.0,96,0.00,,,0.00,weatherlink.com 1.10,2013-09-30 11:37:00,
2013-09-30 07:52:00,45.0,44.0,30.06,West,265,0.0,0.0,96,0.00,,,0.00,weatherlink.com 1.10,2013-09-30 11:52:00,
2013-09-30 08:07:00,45.8,45.0,30.06,West,265,0.0,0.0,96,0.00,,,0.00,weatherlink.com 1.10,2013-09-30 12:07:00,
2013-09-30 08:22:00,47.5,47.0,30.07,West,265,0.0,0.0,97,0.00,,,0.00,weatherlink.com 1.10,2013-09-30 12:22:00,
2013-09-30 08:37:00,48.5,48.0,30.07,West,265,0.0,0.0,98,0.00,,,0.00,weatherlink.com 1.10,2013-09-30 12:37:00,
2013-09-30 08:52:00,51.3,51.0,30.07,West,265,0.0,1.0,98,0.00,,,0.00,weatherlink.com 1.10,2013-09-30 12:52:00,
2013-09-30 09:07:00,53.5,53.0,30.07,West,265,0.0,1.0,98,0.00,,,0.00,weatherlink.com 1.10,2013-09-30 13:07:00,
2013-09-30 09:22:00,55.6,55.0,30.07,West,265,0.0,1.0,98,0.00,,,0.00,weatherlink.com 1.10,2013-09-30 13:22:00,
2013-09-30 09:37:00,57.1,56.0,30.07,West,265,1.0,1.0,96,0.00,,,0.00,weatherlink.com 1.10,2013-09-30 13:37:00,
2013-09-30 09:52:00,59.0,57.0,30.07,West,265,0.0,2.0,92,0.00,,,0.00,weatherlink.com 1.10,2013-09-30 13:52:00,
2013-09-30 10:07:00,61.0,57.0,30.07,SW,226,0.0,5.0,87,0.00,,,0.00,weatherlink.com 1.10,2013-09-30 14:07:00,
2013-09-30 10:22:00,62.7,58.0,30.06,SSE,151,0.0,7.0,83,0.00,,,0.00,weatherlink.com 1.10,2013-09-30 14:22:00,
2013-09-30 10:38:00,64.0,58.0,30.06,West,274,1.0,5.0,80,0.00,,,0.00,weatherlink.com 1.10,2013-09-30 14:38:00,
2013-09-30 10:53:00,65.1,58.0,30.05,West,276,0.0,8.0,77,0.00,,,0.00,weatherlink.com 1.10,2013-09-30 14:53:00,
2013-09-30 11:08:00,66.4,58.0,30.05,SW,221,0.0,5.0,75,0.00,,,0.00,weatherlink.com 1.10,2013-09-30 15:08:00,
2013-09-30 11:23:00,67.4,58.0,30.05,SSW,195,0.0,6.0,73,0.00,,,0.00,weatherlink.com 1.10,2013-09-30 15:23:00,
2013-09-30 11:38:00,68.5,59.0,30.04,SSE,153,3.0,6.0,71,0.00,,,0.00,weatherlink.com 1.10,2013-09-30 15:38:00,
2013-09-30 11:53:00,69.4,59.0,30.04,SW,221,3.0,7.0,69,0.00,,,0.00,weatherlink.com 1.10,2013-09-30 15:53:00,
2013-09-30 12:08:00,69.9,59.0,30.04,WNW,287,2.0,8.0,68,0.00,,,0.00,weatherlink.com 1.10,2013-09-30 16:08:00,
2013-09-30 12:23:00,70.4,59.0,30.04,SE,142,0.0,7.0,67,0.00,,,0.00,weatherlink.com 1.10,2013-09-30 16:23:00,
2013-09-30 12:38:00,71.5,59.0,30.03,South,174,2.0,9.0,64,0.00,,,0.00,weatherlink.com 1.10,2013-09-30 16:38:00,
2013-09-30 12:53:00,72.8,57.0,30.02,SE,144,2.0,5.0,59,0.00,,,0.00,weatherlink.com 1.10,2013-09-30 16:53:00,
2013-09-30 13:08:00,72.6,58.0,30.01,WSW,244,0.0,6.0,60,0.00,,,0.00,weatherlink.com 1.10,2013-09-30 17:08:00,
2013-09-30 13:23:00,73.8,57.0,30.01,SSE,163,0.0,10.0,57,0.00,,,0.00,weatherlink.com 1.10,2013-09-30 17:23:00,
2013-09-30 13:38:00,74.2,58.0,30.00,West,276,2.0,7.0,57,0.00,,,0.00,weatherlink.com 1.10,2013-09-30 17:38:00,
2013-09-30 13:53:00,74.5,57.0,29.99,WSW,250,1.0,6.0,55,0.00,,,0.00,weatherlink.com 1.10,2013-09-30 17:53:00,
2013-09-30 14:08:00,74.3,56.0,29.99,South,173,0.0,6.0,54,0.00,,,0.00,weatherlink.com 1.10,2013-09-30 18:08:00,
2013-09-30 14:23:00,74.8,57.0,29.98,SSE,151,1.0,6.0,54,0.00,,,0.00,weatherlink.com 1.10,2013-09-30 18:23:00,
2013-09-30 14:38:00,76.1,58.0,29.97,WNW,282,2.0,5.0,53,0.00,,,0.00,weatherlink.com 1.10,2013-09-30 18:38:00,
2013-09-30 14:53:00,75.7,57.0,29.97,WSW,240,0.0,7.0,53,0.00,,,0.00,weatherlink.com 1.10,2013-09-30 18:53:00,
2013-09-30 15:08:00,76.8,57.0,29.96,South,172,0.0,2.0,51,0.00,,,0.00,weatherlink.com 1.10,2013-09-30 19:08:00,
2013-09-30 15:23:00,76.4,57.0,29.96,West,262,0.0,4.0,51,0.00,,,0.00,weatherlink.com 1.10,2013-09-30 19:23:00,
2013-09-30 15:38:00,75.9,57.0,29.96,WSW,257,0.0,2.0,52,0.00,,,0.00,weatherlink.com 1.10,2013-09-30 19:38:00,
2013-09-30 15:54:00,76.7,58.0,29.95,WSW,255,0.0,2.0,52,0.00,,,0.00,weatherlink.com 1.10,2013-09-30 19:54:00,
2013-09-30 16:09:00,78.4,58.0,29.95,WSW,254,0.0,2.0,50,0.00,,,0.00,weatherlink.com 1.10,2013-09-30 20:09:00,
2013-09-30 16:24:00,78.6,58.0,29.94,WSW,253,0.0,2.0,49,0.00,,,0.00,weatherlink.com 1.10,2013-09-30 20:24:00,
2013-09-30 16:39:00,78.6,57.0,29.95,WSW,253,1.0,5.0,48,0.00,,,0.00,weatherlink.com 1.10,2013-09-30 20:39:00,
2013-09-30 16:54:00,78.7,58.0,29.94,SSE,164,0.0,5.0,50,0.00,,,0.00,weatherlink.com 1.10,2013-09-30 20:54:00,
2013-09-30 17:09:00,78.7,57.0,29.94,SSE,164,0.0,3.0,48,0.00,,,0.00,weatherlink.com 1.10,2013-09-30 21:09:00,
2013-09-30 17:24:00,78.5,59.0,29.95,SSE,164,0.0,4.0,51,0.00,,,0.00,weatherlink.com 1.10,2013-09-30 21:24:00,
2013-09-30 17:39:00,79.3,59.0,29.95,SSE,164,0.0,1.0,50,0.00,,,0.00,weatherlink.com 1.10,2013-09-30 21:39:00,
2013-09-30 17:54:00,78.6,58.0,29.95,SSE,164,0.0,1.0,50,0.00,,,0.00,weatherlink.com 1.10,2013-09-30 21:54:00,
2013-09-30 18:09:00,76.0,59.0,29.95,SSE,164,0.0,1.0,55,0.00,,,0.00,weatherlink.com 1.10,2013-09-30 22:09:00,
2013-09-30 18:24:00,74.3,57.0,29.95,SSE,164,0.0,1.0,56,0.00,,,0.00,weatherlink.com 1.10,2013-09-30 22:24:00,
2013-09-30 18:39:00,72.7,59.0,29.96,SSE,164,0.0,0.0,62,0.00,,,0.00,weatherlink.com 1.10,2013-09-30 22:39:00,
2013-09-30 18:54:00,70.5,59.0,29.96,SSE,164,0.0,0.0,67,0.00,,,0.00,weatherlink.com 1.10,2013-09-30 22:54:00,
2013-09-30 19:09:00,68.6,58.0,29.97,SSE,164,0.0,0.0,69,0.00,,,0.00,weatherlink.com 1.10,2013-09-30 23:09:00,
2013-09-30 19:24:00,66.4,58.0,29.96,SSE,164,0.0,0.0,74,0.00,,,0.00,weatherlink.com 1.10,2013-09-30 23:24:00,
2013-09-30 19:39:00,64.6,57.0,29.97,SSE,164,0.0,0.0,77,0.00,,,0.00,weatherlink.com 1.10,2013-09-30 23:39:00,
2013-09-30 19:54:00,63.3,57.0,29.98,SSE,164,0.0,0.0,80,0.00,,,0.00,weatherlink.com 1.10,2013-09-30 23:54:00,
2013-09-30 20:09:00,62.3,56.0,29.99,SSE,164,0.0,0.0,81,0.00,,,0.00,weatherlink.com 1.10,2013-10-01 00:09:00,
2013-09-30 20:24:00,61.3,57.0,29.99,SSE,164,0.0,0.0,84,0.00,,,0.00,weatherlink.com 1.10,2013-10-01 00:24:00,
2013-09-30 20:39:00,60.5,56.0,29.99,SSE,164,0.0,0.0,85,0.00,,,0.00,weatherlink.com 1.10,2013-10-01 00:39:00,
2013-09-30 20:54:00,59.8,56.0,29.99,SSE,164,0.0,0.0,86,0.00,,,0.00,weatherlink.com 1.10,2013-10-01 00:54:00,
2013-09-30 21:09:00,59.0,55.0,30.00,SSE,164,0.0,0.0,87,0.00,,,0.00,weatherlink.com 1.10,2013-10-01 01:09:00,
2013-09-30 21:24:00,58.4,55.0,30.00,SSE,164,0.0,0.0,88,0.00,,,0.00,weatherlink.com 1.10,2013-10-01 01:24:00,
2013-09-30 21:39:00,57.7,55.0,30.01,SSE,164,0.0,0.0,89,0.00,,,0.00,weatherlink.com 1.10,2013-10-01 01:39:00,
2013-09-30 21:54:00,57.1,54.0,30.00,SSE,164,0.0,0.0,90,0.00,,,0.00,weatherlink.com 1.10,2013-10-01 01:54:00,
2013-09-30 22:09:00,56.7,54.0,30.00,SSE,164,0.0,0.0,90,0.00,,,0.00,weatherlink.com 1.10,2013-10-01 02:09:00,
2013-09-30 22:24:00,56.2,54.0,30.00,SSE,164,0.0,0.0,91,0.00,,,0.00,weatherlink.com 1.10,2013-10-01 02:24:00,
2013-09-30 22:39:00,55.8,53.0,30.01,SSE,164,0.0,0.0,91,0.00,,,0.00,weatherlink.com 1.10,2013-10-01 02:39:00,
2013-09-30 22:54:00,55.3,53.0,30.00,SSE,164,0.0,0.0,92,0.00,,,0.00,weatherlink.com 1.10,2013-10-01 02:54:00,
2013-09-30 23:09:00,55.0,53.0,30.00,SSE,164,0.0,0.0,92,0.00,,,0.00,weatherlink.com 1.10,2013-10-01 03:09:00,
2013-09-30 23:24:00,54.5,52.0,30.00,SSE,164,0.0,0.0,92,0.00,,,0.00,weatherlink.com 1.10,2013-10-01 03:24:00,
2013-09-30 23:39:00,54.2,52.0,29.99,SSE,164,0.0,0.0,92,0.00,,,0.00,weatherlink.com 1.10,2013-10-01 03:39:00,
2013-09-30 23:54:00,54.0,52.0,30.00,SSE,164,0.0,0.0,93,0.00,,,0.00,weatherlink.com 1.10,2013-10-01 03:54:00,